Погода в Барановичи

Погода в Барановичи : погода сейчас, прогноз погоды и архив. Всё, что Вы хотите узнать о погоде в Барановичи!

Хотите узнать прогноз погоды в Барановичи? Тогда Вам сюда: Погода в Барановичи

Поиск расширенной информации на нашем сайте:

Другие новости

Новости СМИ2

Главная страница сайта

Новости сайта

02.10.2013

Напоминаем, что на нашем новом сайте вы можете получить высокодетализированные прогнозы погоды по пунктам России, СНГ и мира (включающие важные для авиации метеовеличины, такие как направление и скорость ветра, видимость, явления погоды, количество и форма облачности, нижняя и верхняя граница облачности), а также ознакомиться с разнообразными материалами по авиационной метеорологии и подборкой полезных ссылок на эту тему.

Сайт Метеоцентр.Азия посвящён разработке технологий оптимизации авиаметеорологического обслуживания, включая проектирование и перспективное создание нескольких автоматизированных авиаметеорологических систем:
- система выпуска высокодетальных прогностических карт явлений погоды для нижнего воздушного пространства по России и ближнему зарубежью;
- система верификации прогнозов TAF (выпускаемых синоптиками официальных АМСГ РФ и ближнего зарубежья) и AUTOTAF (выпускаемых сайтом Метеоцентр.Азия) - выявление ошибок, онлайн-сопоставление с фактической погодой METAR, автоматическое внесение коррективов в прогнозы при резком отклонении фактической погоды от прогноза, подсчёт оправдываемости прогнозов по элементам и в целом;
- система обработки, анализа и отображения авиаметеорологической информации для применения провайдерами метеорологической информации.


Погода в Барановичи - сегодня

Время (UTC), дата Ветер
(°,м/с) 
Видим.   Явления Облачность Т
(°С)
Тd
(°С)
f(%) Тe
(°С)
Pmin
(гПа)
dP
(гПа)
Po
(мм)
O2
(г/м3)
Тmin Tmax R s Состояние
почвы
12 22.04.17 260 (З) 6-12{16}  10 км  {ливн. осадки}  9/8 1000 м 
[Cu hum]
+7.8 -3.8 44 +6  1004.9  736  289           
15 22.04.17 260 (З) 6-13{16}  10 км    8/8 600 м кучево-дожд. 
[Cb calv]
+8.7 -1.4 49 +7  1005.2  0.4  737  288      0.4     
18 22.04.17 240 (ЮЗ) 3{14}  10 км    8/8 600 м кучево-дожд. 
[Cb calv]
+4.6 -0.2 71 +3  1007.1  1.4  738  292    +9.6  0.4     
21 22.04.17 230 (ЮЗ) 10 км    ясно 
+3.1 -0.7 76 +2  1007.2  0.1  738  294           
00 23.04.17 230 (ЮЗ) 10 км    ясно 
+1.1 -0.9 86 1007.3  -0.1  738  296           
03 23.04.17 230 (ЮЗ) 10 км    ясно 
+0.1 -1.4 90 -2  1007.2  -0.2  737  297           
06 23.04.17 250 (З) 10 км    8/8 600 м 
[Sc]
+2.6 +0.2 84 +1  1008.2  1.2  738  295  +0.1         
09 23.04.17 240 (ЮЗ) 10 км    8/8 600 м 
[Cu med, cong]
+6 -2.2 56 +4  1008.9  739  292           
12 23.04.17 260 (З) 1{10}  10 км  в посл. час ливневой снег  8/8 600 м кучево-дожд. 
[Cb calv]
+5.6 +1.6 75 +6  1009.4  0.4  739  292           
15 23.04.17 260 (З) 10 км    6/6 1000 м 
[Cu med, cong]
+8.4 -6 35 +7  1009.5  0.3  740  290      0.3     
18 23.04.17 230 (ЮЗ) 10 км    4/4 1000 м 
[Cu hum]
+4 -1.9 65 +3  1011.6  1.7  741  294    +9.2  0.3     
21 23.04.17 250 (З) 10 км    ясно 
+1.3 -1.3 83 +1  1013.4  1.6  742  298           
00 24.04.17 210 (ЮЗ) 10 км    ясно 
-0.5 -2 90 -1  1013.5  -0.1  742  300           
03 24.04.17 240 (ЮЗ) 10 км    ясно 
-1.3 -2.8 90 -2  1013.5  -0.1  742  301           
06 24.04.17 290 (З) 10 км    3/0 средняя 
[Ac trans]
+3.8 -1.8 67 +3  1013.8  0.7  742  295  -1.5         
09 24.04.17 200 (Ю) 10 км    4/4 1000 м 
[Cu hum]
+7.3 -4.7 42 +6  1013.6  0.2  743  292           
12 24.04.17 200 (Ю) 3{11}  10 км  {ливн. осадки}  8/8 600 м кучево-дожд. 
[Cb calv]
+7 -0.2 60 +6  1013.3  -0.3  742  292           
15 24.04.17 250 (З) 3{10}  10 км    8/8 600 м кучево-дожд. 
[Cb calv]
+7.4 -0.9 56 +7  1013.4  0.1  742  291      0.3     
18 24.04.17 160 (Ю) 10 км  {ливн. осадки}  10/3 600 м верхняя 
[Sc|Ci fib]
+5 +0.3 72 +5  1013.9  0.3  743  294    +8.9  0.7     
21 24.04.17 160 (Ю) 10 км    10/0 средняя, верхняя 
[Ac As|Ci fib]
+3 +7.9 100 +4  1014.3  0.2  743  295           
00 25.04.17 160 (Ю) 10 км    10/0 верхняя 
[Ci sp]
+3.1 -1.7 71 +3  1013.7  -0.6  742  296           
03 25.04.17 170 (Ю) 10 км    9/9 1000 м 
[Sc]
+3.6 -1.4 70 +2  1012.6  -1.1  742  295           
06 25.04.17 150 (ЮВ) 10 км    9/0 средняя, верхняя 
[Ac trans|Cs]
+5.2 +0.3 71 +5  1011.5  -0.9  741  293  +3         
09 25.04.17 160 (Ю) 5{10}  10 км    9/0 верхняя 
[Cs]
+11 +0.6 49 +10  1009.6  -1.3  740  286           
12 25.04.17 150 (ЮВ) 5{11}  10 км    8/0 средняя, верхняя 
[Ac trans|Cs]
+13.6 +1.3 43 +13  1007.4  -2  738  283           
Время (UTC), дата Ветер
(°,м/с) 
Видим.   Явления Облачность Т
(°С)
Тd
(°С)
f(%) Тe
(°С)
Pmin
(гПа)
dP
(гПа)
Po
(мм)
O2
(г/м3)
Тmin Tmax R s Состояние
почвы

Для получения пояснительной информации подведите курсор к названию столбца.

ПОГОДА в Барановичи - архив

Всё, что Вы хотите узнать о погоде в Барановичи - удобно и подробно!

Выберите нужную дату (начиная с 1 января 2015* года) и нажмите кнопку "Найти".
Будут отображены архивные сводки погоды по пункту Барановичи, начиная с указанной даты.


Отображать данные в формате CSV (для использования в таблицах Excel)


Внимание! Наш архив погоды предназначен исключительно для личного некоммерческого использования в познавательных целях. Если Вам необходимы официальные справки о состоянии погоды (для производственных, юридических, коммерческих и т.п. целей), обращайтесь в органы Росгидромета.

*Примечание: данная дата относится к архиву по метеостанциям СССР (Россия, СНГ, Балтия).
Архив по метеостанциям Зарубежной Европы и Азии (кроме Китая) хранится 10 дней, по другим регионам земного шара (Китай, Африка, Америка, Австралия, Океания) - 1 день.

Барановичи - район местоположения метеостанции


Название, широта, долгота, высота метеостанции:
Барановичи 53.1°ш. 26°д. 193 м над ур. моря [Беларусь]

Дополнительная информация

В oтличие oт бoльшинства пoгoдных сайтoв мы публикуем пoдрoбную метеoинфoрмацию в детальнoм прoфессиoнальнoм фoрмате.

Характеристики температуры и влажнoсти вoздуха измеряются на высoте 2 м в тени вдали oт зданий и деревьев.
Скoрoсть ветра измеряется на высoте 10 м (на урoвне рoста челoвека скoрoсть ветра ниже в 1.5-2 раза). Если метеoстанция нахoдится в гoрoде или в лесу, тo скoрoсть ветра занижена на 2-4 м/с пo сравнению с oткрытым местoм. Скoрoсть ветра над акватoриями крупных рек и oзёр, а также на вершинах хoлмoв на 2-5 м/с выше, чем в oбычных услoвиях.
Атмoсфернoе давление в разных тoчках местнoсти мoжет значительнo oтличаться oт давления на метеoстанции, в зависимoсти oт услoвий рельефа (при пoдъёме на 10 м давление пoнижается примернo на 1 мм рт.ст.).